Oslo Airport, Norway

4:47 AM CEST on April 23, 2018 (GMT +0200)
Gardermoen

Weather History for ENGM - September, 2013

Change the Weather History Date:

Monday, September 16, 2013

  Actual Average Record
Temperature  
Mean Temperature 48 °F -  
Max Temperature 51 °F 51 °F 66 °F (2002)
Min Temperature 46 °F 38 °F 33 °F (2007)
Degree Days  
Heating Degree Days 16    
Moisture  
Dew Point 47 °F    
Average Humidity 90    
Maximum Humidity 94    
Minimum Humidity 82    
Precipitation  
Precipitation 0.35 in 0.13 in - ()
Sea Level Pressure  
Sea Level Pressure 29.22 in    
Wind  
Wind Speed 10 mph ()    
Max Wind Speed 15 mph    
Max Gust Speed 26 mph    
Visibility 6.0 miles    
Events Rain    
Averages and records for this station are not official NWS values.
T = Trace of Precipitation, MM = Missing Value Source: Averaged Metar Reports

Daily Weather History Graph

Daily Weather History Graph

Search for Another Location

Airport or City:

Astronomy

Sep. 16, 2013 Rise Set
Actual Time 6:45 AM CEST 7:33 PM CEST
Civil Twilight 6:03 AM CEST 8:16 PM CEST
Nautical Twilight 5:11 AM CEST 9:07 PM CEST
Astronomical Twilight 4:12 AM CEST 10:06 PM CEST
Moon 6:03 PM CEST (9/16) 2:29 AM CEST (9/16)
Length of Visible Light 14h 12m
Length of Day
12h 48m
Waxing Gibbous, 88% of the Moon is Illuminated
Sep 16
Waxing Gibbous
Sep 19
Full
Sep 27
Last Quarter
Oct 5
New
Oct 12
First Quarter

Hourly Weather History & Observations

Time (CEST) Temp. Windchill Dew Point Humidity Pressure Visibility Wind Dir Wind Speed Gust Speed Precip Events Conditions
12:20 AM 50.0 °F - 48.2 °F 94% 29.39 in 6.2 mi SSE 11.5 mph 24.2 mph N/A   Mostly Cloudy
12:50 AM 50.0 °F - 48.2 °F 94% 29.36 in 6.2 mi SSE 8.1 mph - N/A   Mostly Cloudy
1:20 AM 50.0 °F - 46.4 °F 87% 29.36 in 6.2 mi SSE 9.2 mph - N/A   Mostly Cloudy
1:50 AM 50.0 °F - 48.2 °F 94% 29.36 in 6.2 mi SSE 10.4 mph - N/A   Mostly Cloudy
2:00 AM 51 °F - 48 °F 86%  in 34 mi SSE 8.9 mph - -   Partly Cloudy
2:20 AM 50.0 °F - 48.2 °F 94% 29.33 in 6.2 mi SSE 10.4 mph - N/A   Mostly Cloudy
2:50 AM 50.0 °F - 48.2 °F 94% 29.33 in 6.2 mi SSE 10.4 mph - N/A   Mostly Cloudy
3:20 AM 50.0 °F - 48.2 °F 94% 29.33 in 6.2 mi SSE 10.4 mph - N/A   Mostly Cloudy
3:50 AM 50.0 °F - 46.4 °F 87% 29.30 in 6.2 mi SE 10.4 mph - N/A   Mostly Cloudy
4:50 AM 50.0 °F - 46.4 °F 87% 29.27 in 6.2 mi SE 12.7 mph - N/A   Overcast
5:20 AM 50.0 °F - 46.4 °F 87% 29.27 in 6.2 mi SE 11.5 mph - N/A   Overcast
5:50 AM 50.0 °F - 46.4 °F 87% 29.27 in 6.2 mi SE 11.5 mph - N/A   Overcast
6:20 AM 50.0 °F - 48.2 °F 94% 29.24 in 6.2 mi SE 10.4 mph - N/A Rain Light Rain
6:50 AM 50.0 °F - 48.2 °F 94% 29.24 in 6.2 mi SE 11.5 mph - N/A Rain Light Rain
7:20 AM 50.0 °F - 48.2 °F 94% 29.24 in 6.2 mi SE 11.5 mph - N/A Rain Light Rain
7:50 AM 50.0 °F - 48.2 °F 94% 29.24 in 6.2 mi SE 12.7 mph - N/A Rain Light Rain
8:20 AM 50.0 °F - 48.2 °F 94% 29.21 in 6.2 mi SE 11.5 mph - N/A Rain Light Rain
8:50 AM 50.0 °F - 48.2 °F 94% 29.21 in 4.3 mi ESE 11.5 mph - N/A Rain Light Rain
9:20 AM 50.0 °F - 48.2 °F 94% 29.21 in 6.2 mi ESE 12.7 mph - N/A Rain Light Rain
9:50 AM 50.0 °F - 48.2 °F 94% 29.18 in 6.2 mi ESE 12.7 mph - N/A Rain Rain
10:20 AM 50.0 °F - 48.2 °F 94% 29.18 in 6.2 mi ESE 11.5 mph - N/A Rain Light Rain
10:50 AM 50.0 °F - 48.2 °F 94% 29.18 in 6.2 mi ESE 12.7 mph - N/A Rain Rain
11:20 AM 50.0 °F - 48.2 °F 94% 29.15 in 6.2 mi ESE 12.7 mph - N/A Rain Light Rain
11:50 AM 50.0 °F - 48.2 °F 94% 29.15 in 6.2 mi ESE 12.7 mph - N/A Rain Light Rain
12:20 PM 50.0 °F - 48.2 °F 94% 29.12 in 6.2 mi ESE 12.7 mph - N/A Rain Light Rain
12:50 PM 50.0 °F - 48.2 °F 94% 29.12 in 5.0 mi ESE 12.7 mph - N/A Rain Rain
1:20 PM 50.0 °F - 48.2 °F 94% 29.12 in 5.0 mi SE 15.0 mph 26.5 mph N/A Rain Rain
1:50 PM 50.0 °F - 48.2 °F 94% 29.12 in 6.2 mi ESE 15.0 mph - N/A Rain Rain
2:00 PM 49 °F - 47 °F 90%  in 1 mi SSW 11.2 mph - - Rain Rain
2:20 PM 50.0 °F - 46.4 °F 87% 29.15 in 6.2 mi SSW 8.1 mph - N/A Rain Light Rain
2:50 PM 48.2 °F - 46.4 °F 93% 29.15 in 6.2 mi South 8.1 mph - N/A Rain Light Rain
3:20 PM 48.2 °F - 46.4 °F 93% 29.15 in 6.2 mi SE 6.9 mph - N/A Rain Light Rain
3:50 PM 50.0 °F - 46.4 °F 87% 29.15 in 6.2 mi SE 8.1 mph - N/A Rain Light Rain
4:20 PM 50.0 °F - 46.4 °F 87% 29.15 in 6.2 mi SE 10.4 mph - N/A   Mostly Cloudy
4:50 PM 50.0 °F - 46.4 °F 87% 29.15 in 6.2 mi SSE 10.4 mph - N/A   Mostly Cloudy
5:20 PM 51.8 °F - 48.2 °F 88% 29.18 in 6.2 mi SSE 12.7 mph - N/A   Mostly Cloudy
5:50 PM 50.0 °F - 46.4 °F 87% 29.18 in 6.2 mi SSE 13.8 mph - N/A   Mostly Cloudy
6:20 PM 50.0 °F - 46.4 °F 87% 29.18 in 6.2 mi SSE 13.8 mph - N/A   Mostly Cloudy
6:50 PM 50.0 °F - 46.4 °F 87% 29.18 in 6.2 mi SSE 12.7 mph - N/A   Mostly Cloudy
7:20 PM 50.0 °F - 46.4 °F 87% 29.18 in 6.2 mi SSE 15.0 mph - N/A   Mostly Cloudy
7:50 PM 50.0 °F - 44.6 °F 82% 29.21 in 6.2 mi South 13.8 mph - N/A   Mostly Cloudy
8:00 PM 50 °F - 46 °F 82%  in 31 mi SSE 8.9 mph - -   Partly Cloudy
8:20 PM 50.0 °F - 46.4 °F 87% 29.21 in 6.2 mi SSE 15.0 mph - N/A Rain Light Rain
8:50 PM 48.2 °F - 44.6 °F 87% 29.24 in 6.2 mi South 11.5 mph - N/A   Mostly Cloudy
9:20 PM 48.2 °F - 44.6 °F 87% 29.24 in 6.2 mi SSE 12.7 mph - N/A   Mostly Cloudy
9:50 PM 48.2 °F - 44.6 °F 87% 29.24 in 6.2 mi SSE 13.8 mph - N/A Rain Light Rain Showers
10:20 PM 46.4 °F 41.5 °F 44.6 °F 93% 29.24 in 6.2 mi SSE 10.4 mph - N/A   Mostly Cloudy
10:50 PM 46.4 °F 41.5 °F 42.8 °F 87% 29.27 in 6.2 mi SSE 10.4 mph - N/A   Mostly Cloudy
11:20 PM 46.4 °F 41.5 °F 42.8 °F 87% 29.27 in 6.2 mi SSE 10.4 mph - N/A   Scattered Clouds
11:50 PM 46.4 °F 41.5 °F 42.8 °F 87% 29.27 in 6.2 mi SSE 10.4 mph - N/A Rain Light Rain Showers